Regional Weather Roundup
Issued by NWS

Home | Current Version | Previous Version | Text Only | Print | Product List | Glossary On
Versions: 1 2 3 4 5 6 7 8 9 10 11 12 13 14 15 16 17 18 19 20 21 22 23 24 25 26 27 28 29 30 31 32 33 34 35 36 37 38 39 40 41 42 43 44 45 46 47 48 49 50
000
ASUS43 KLSX 152259
RWRMO

WEATHER SUMMARY FOR MISSOURI
NATIONAL WEATHER SERVICE SPRINGFIELD MO
600 PM CDT TUE APR 15 2014

NOTE: "FAIR" INDICATES FEW OR NO CLOUDS BELOW 12,000 FEET WITH NO
       SIGNIFICANT WEATHER AND/OR OBSTRUCTIONS TO VISIBILITY.
       CURRENT SKY AND/OR WEATHER CONDITIONS ARE NOT AVAILABLE FOR
       CHILLICOTHE AND FARMINGTON.

MOZ001>031-035>038-043-044-053-054-160000-
...NORTHERN AND WESTERN MISSOURI...

CITY           SKY/WX    TMP DP  RH WIND       PRES   REMARKS
KANSAS CTY INT PTSUNNY   52  25  35 S9G22     30.05F
KANSAS C DTWN  MOSUNNY   55  26  32 SW10G22   30.06F
LEE`S SUMMIT   SUNNY     53  27  36 S10       30.08F
ST JOSEPH      MOSUNNY   54  27  35 S14       30.04F
CHILLICOTHE      N/A     51  23  33 S8        30.10F
KIRKSVILLE     SUNNY     48  17  29 VRB6      30.11F

$$
MOZ066>068-077>081-088>096-101>105-160000-
...SOUTHWEST MISSOURI...

CITY           SKY/WX    TMP DP  RH WIND       PRES   REMARKS
SPRINGFIELD    SUNNY     52  22  30 N3        30.13F
JOPLIN         SUNNY     56  23  27 CALM      30.11F

$$
MOZ032>034-039>042-045>050-055>058-069>072-160000-
...CENTRAL MISSOURI...

CITY           SKY/WX    TMP DP  RH WIND       PRES   REMARKS
COLUMBIA       SUNNY     49  21  33 SW6       30.15S
JEFFERSON CITY SUNNY     50  20  30 W7        30.16S
ROLLA          SUNNY     48  20  32 SW3       30.13F
SEDALIA        SUNNY     51  25  36 SW8       30.12F
OSAGE BEACH    SUNNY     52  18  25 NE5       30.16S

$$
MOZ051-052-059>065-160000-
...EAST CENTRAL MISSOURI...

CITY           SKY/WX    TMP DP  RH WIND       PRES   REMARKS
ST LOUIS INTL  MOSUNNY   48  17  29 N3        30.18S
SPIRIT OF STL  MOSUNNY   48  16  27 E3        30.17S
ST CHARLES     SUNNY     47  18  31 NW6       30.17F

$$
MOZ072>076-082>087-097>100-106>115-160000-
...SOUTH CENTRAL AND SOUTHEAST MISSOURI...

CITY           SKY/WX    TMP DP  RH WIND       PRES   REMARKS
CAPE GIRARDEAU SUNNY     49  20  31 N9        30.19F
FARMINGTON     SUNNY     48  16  27 S3        30.18S
POPLAR BLUFF   SUNNY     54  19  25 MISG      30.16S
WEST PLAINS    SUNNY     52  22  30 N7        30.15S

$$



USA.gov is the U.S. government's official web portal to all federal, state and local government web resources and services.